This demonstration page uses our WeatherBlox Daily Observations layout. Learn more.

Left ArrowRight Arrow

40.92945, -100.16068

Hourly Observations for January 13, 2021

Temp ( °F °C ) Dew Point ( °F °C ) Humidity (%) Winds ( mph kmh ) Pressure ( in mb ) Visibility ( mi km ) Precip ( " mm )
12:15 am 00:15 Clear 31 -0.8 26 -3.4 83 83 NW 3 6 30.05 1018 10 16.0934 0 0
12:35 am 00:35 Clear 28 -2.3 24 -4.5 85 85 W 5 7 30.07 1018 10 16.0934 0 0
12:55 am 00:55 Clear 29 -1.7 25 -4.1 84 84 Calm 30.03 1017 10 16.0934 0 0
1:15 am 01:15 Clear 28 -2 24 -4.3 84 84 WNW 5 7 30.04 1017 10 16.0934 0 0
1:35 am 01:35 Clear 28 -2.1 24 -4.2 86 86 W 6 9 30.03 1017 10 16.0934 0 0
1:55 am 01:55 Clear 29 -1.6 25 -4 84 84 W 3 6 30.01 1016 10 16.0934 0 0
2:15 am 02:15 Clear 29 -1.6 24 -4.2 83 83 Calm 30 1016 10 16.0934 0 0
2:35 am 02:35 Clear 30 -1.2 25 -4.1 81 81 SSW 5 7 29.99 1016 10 16.0934 0 0
2:55 am 02:55 Clear 31 -0.8 25 -3.7 81 81 SW 3 6 29.98 1015 10 16.0934 0 0
3:15 am 03:15 Clear 31 -0.5 24 -4.2 76 76 W 3 6 29.99 1016 10 16.0934 0 0
3:35 am 03:35 Clear 31 -0.5 26 -3.4 81 81 Calm 29.98 1015 10 16.0934 0 0
3:55 am 03:55 Clear 32 0 25 -3.7 76 76 Calm 29.96 1014 10 16.0934 0 0
4:15 am 04:15 Clear 33 0.3 24 -4.6 70 70 Calm 29.93 1014 10 16.0934 0 0
4:35 am 04:35 Clear 32 0 25 -3.7 76 76 WSW 3 6 29.93 1013 10 16.0934 0 0
4:55 am 04:55 Clear 32 0 27 -2.9 81 81 Calm 29.93 1013 10 16.0934 0 0
5:15 am 05:15 Clear 30 -0.9 26 -3.4 83 83 N 6 9 29.94 1014 10 16.0934 0 0
5:35 am 05:35 Clear 30 -1.2 26 -3.6 84 84 N 5 7 29.94 1014 10 16.0934 0 0
5:55 am 05:55 Clear 29 -1.7 24 -4.4 82 82 W 7 11 29.92 1013 10 16.0934 0 0
6:15 am 06:15 Clear 29 -1.9 24 -4.3 84 84 WNW 8 13 29.95 1014 10 16.0934 0 0
6:35 am 06:35 Clear 29 -1.8 24 -4.6 81 81 WNW 10 17 29.95 1014 10 16.0934 0 0
6:55 am 06:55 Clear 30 -1.2 24 -4.5 79 79 WNW 10 17 29.95 1014 10 16.0934 0 0
7:15 am 07:15 Clear 31 -0.6 25 -4 78 78 WNW 9 15 29.95 1014 10 16.0934 0 0
7:35 am 07:35 Clear 32 0 25 -4 75 75 WNW 12 19 29.94 1014 10 16.0934 0 0
7:55 am 07:55 Clear 34 1 26 -3.2 74 74 WNW 14 22 29.93 1013 10 16.0934 0 0
8:15 am 08:15 Sunny 34 1.2 26 -3.1 73 73 WNW 12 19 29.92 1013 10 16.0934 0 0
8:35 am 08:35 Sunny 34 1 27 -3 75 75 WNW 13 20 29.93 1013 10 16.0934 0 0
8:55 am 08:55 Sunny 35 1.6 27 -2.9 72 72 WNW 16 26 29.92 1013 10 16.0934 0 0
9:15 am 09:15 Sunny 36 2.3 28 -2.5 71 71 WNW 16 26 29.91 1013 10 16.0934 0 0
9:35 am 09:35 Sunny 38 3.2 28 -2.2 68 68 WNW 16 26 29.91 1013 10 16.0934 0 0
9:55 am 09:55 Sunny 39 3.7 28 -2.1 66 66 WNW 17 28 29.9 1013 10 16.0934 0 0
10:15 am 10:15 Sunny 41 5 29 -1.7 62 62 NW 12 19 29.89 1012 10 16.0934 0 0
10:35 am 10:35 Sunny 42 5.5 29 -1.5 61 61 WNW 12 19 29.87 1012 10 16.0934 0 0
10:55 am 10:55 Sunny 45 7 30 -1.3 56 56 WNW 14 22 29.86 1011 10 16.0934 0 0
11:15 am 11:15 Sunny 46 7.9 29 -1.4 52 52 WNW 15 24 29.84 1011 10 16.0934 0 0
11:35 am 11:35 Sunny 48 9 30 -1.2 49 49 WNW 16 26 29.82 1010 10 16.0934 0 0
11:55 am 11:55 Sunny 50 10.2 31 -0.5 48 48 WNW 18 30 29.81 1009 10 16.0934 0 0
12:15 pm 12:15 Sunny 53 11.5 30 -0.9 43 43 WNW 20 31 29.79 1009 10 16.0934 0 0
12:35 pm 12:35 Sunny 54 12.2 31 -0.7 41 41 WNW 22 35 29.76 1008 10 16.0934 0 0
12:55 pm 12:55 Sunny 56 13.2 32 -0.2 40 40 WNW 16 26 29.73 1007 10 16.0934 0 0
1:15 pm 13:15 Sunny 57 14.1 31 -0.5 37 37 WNW 16 26 29.71 1006 10 16.0934 0 0
1:35 pm 13:35 Sunny 59 14.8 32 0.1 37 37 W 12 19 29.69 1005 10 16.0934 0 0
1:55 pm 13:55 Sunny 59 15.1 31 -0.4 35 35 W 13 20 29.67 1005 10 16.0934 0 0
2:15 pm 14:15 Sunny 59 15.2 31 -0.6 34 34 WNW 12 19 29.66 1005 10 16.0934 0 0
2:35 pm 14:35 Sunny 61 16.2 31 -0.8 32 32 WNW 10 17 29.64 1004 10 16.0934 0 0
2:55 pm 14:55 Sunny 61 16.2 31 -0.5 32 32 W 9 15 29.63 1003 10 16.0934 0 0
3:15 pm 15:15 Sunny 62 16.8 31 -0.5 31 31 W 14 22 29.62 1003 10 16.0934 0 0
3:35 pm 15:35 Sunny 60 15.8 32 -0.1 34 34 W 13 20 29.63 1003 10 16.0934 0 0
3:55 pm 15:55 Sunny 59 15.1 31 -0.3 35 35 W 9 15 29.63 1003 10 16.0934 0 0
4:15 pm 16:15 Sunny 57 13.7 33 0.8 42 42 W 8 13 29.64 1004 10 16.0934 0 0
4:35 pm 16:35 Sunny 55 12.7 34 1.2 46 46 W 7 11 29.66 1004 10 16.0934 0 0
4:55 pm 16:55 Sunny 54 12 33 0.7 46 46 W 6 9 29.65 1004 10 16.0934 0 0
5:15 pm 17:15 Sunny 52 11.1 33 0.8 49 49 W 8 13 29.65 1004 10 16.0934 0 0
5:35 pm 17:35 Clear 51 10.4 33 0.6 51 51 WSW 6 9 29.65 1004 10 16.0934 0 0
5:55 pm 17:55 Clear 50 9.8 33 0.4 52 52 WSW 5 7 29.64 1004 10 16.0934 0 0
6:15 pm 18:15 Clear 49 9.5 33 0.7 55 55 WSW 6 9 29.65 1004 10 16.0934 0 0
6:35 pm 18:35 Clear 50 9.9 34 1 54 54 WSW 7 11 29.63 1003 10 16.0934 0 0
6:55 pm 18:55 Clear 50 10.2 34 1.1 54 54 WSW 8 13 29.63 1003 10 16.0934 0 0
7:15 pm 19:15 Clear 51 10.5 34 0.9 52 52 WSW 7 11 29.63 1003 10 16.0934 0 0
7:35 pm 19:35 Clear 51 10.5 33 0.8 51 51 WSW 8 13 29.62 1003 10 16.0934 0 0
7:55 pm 19:55 Clear 50 10 33 0.6 52 52 SW 12 19 29.61 1003 10 16.0934 0 0
8:15 pm 20:15 Clear 50 9.9 33 0.6 53 53 WSW 7 11 29.6 1002 10 16.0934 0 0
8:35 pm 20:35 Clear 49 9.6 33 0.5 53 53 WSW 8 13 29.59 1002 10 16.0934 0 0
8:55 pm 20:55 Clear 47 8.5 33 0.5 57 57 WSW 9 15 29.6 1003 10 16.0934 0 0
9:15 pm 21:15 Clear 47 8.4 32 0.2 57 57 WSW 7 11 29.62 1003 10 16.0934 0 0
9:35 pm 21:35 Clear 46 7.6 33 0.3 60 60 W 8 13 29.62 1003 10 16.0934 0 0
9:55 pm 21:55 Clear 46 7.8 33 0.4 60 60 W 9 15 29.61 1003 10 16.0934 0 0
10:15 pm 22:15 Clear 46 7.9 33 0.5 60 60 W 10 17 29.61 1003 10 16.0934 0 0
10:35 pm 22:35 Partly Cloudy 46 7.7 33 0.5 61 61 W 8 13 29.61 1003 10 16.0934 0 0
10:55 pm 22:55 Mostly Cloudy 47 8.5 34 0.9 59 59 W 12 19 29.6 1003 10 16.0934 0 0
11:15 pm 23:15 Mostly Cloudy 51 10.3 34 1 53 53 NW 26 43 29.64 1004 10 16.0934 0 0
11:35 pm 23:35 Clear 48 8.8 37 2.8 66 66 N 36 57 29.71 1006 10 16.0934 0 0
11:55 pm 23:55 Mostly Cloudy 46 7.7 37 3 72 72 NNW 32 52 29.76 1008 10 16.0934 0 0

Powered by AerisWeather